Time,TemperatureF,DewpointF,PressureIn,WindDirection,WindDirectionDegrees,WindSpeedMPH,WindSpeedGustMPH,Humidity,HourlyPrecipIn,Conditions,Clouds,dailyrainin,SoftwareType,DateUTC
2013-01-17 00:27:00,58.0,39.5,28.22,SSW,202,2.0,14.0,50,1.27,,SKC,0.00,VWS V15.00,2013-01-17 06:27:00,
2013-01-17 00:28:00,59.0,40.4,28.22,SSW,202,2.0,14.0,50,1.27,,SKC,0.00,VWS V15.00,2013-01-17 06:28:00,
2013-01-17 00:29:00,59.0,40.4,28.22,WSW,247,6.0,14.0,50,1.27,,SKC,0.00,VWS V15.00,2013-01-17 06:29:00,
2013-01-17 00:30:00,59.0,40.4,28.22,SW,225,6.0,14.0,50,1.27,,SKC,0.00,VWS V15.00,2013-01-17 06:30:00,
2013-01-17 00:31:00,59.0,40.4,28.22,SW,225,6.0,14.0,50,1.27,,SKC,0.00,VWS V15.00,2013-01-17 06:31:00,
2013-01-17 00:32:00,58.0,39.5,28.22,SW,225,3.0,14.0,50,1.27,,SKC,0.00,VWS V15.00,2013-01-17 06:32:00,
2013-01-17 00:33:00,82.0,65.3,30.04,East,90,0.0,25.0,57,0.00,,SKC,0.00,VWS V14.01,2013-01-17 06:33:00,
2013-01-17 00:34:00,82.0,65.3,30.04,East,90,0.0,25.0,57,0.00,,SKC,0.00,VWS V14.01,2013-01-17 06:34:00,
2013-01-17 00:35:00,82.0,65.3,30.04,East,90,0.0,25.0,57,0.00,,SKC,0.00,VWS V14.01,2013-01-17 06:35:00,
2013-01-17 00:36:00,82.0,65.3,30.03,East,90,1.0,25.0,57,0.00,,SKC,0.00,VWS V14.01,2013-01-17 06:36:00,
2013-01-17 00:37:00,82.0,65.3,30.03,East,90,1.0,25.0,57,0.00,,SKC,0.00,VWS V14.01,2013-01-17 06:37:00,
2013-01-17 00:38:00,58.0,39.5,28.22,WSW,247,2.0,14.0,50,1.27,,SKC,0.00,VWS V15.00,2013-01-17 06:38:00,
2013-01-17 00:39:00,58.0,40.0,28.22,West,270,5.0,14.0,51,1.27,,SKC,0.00,VWS V15.00,2013-01-17 06:39:00,
2013-01-17 00:40:00,58.0,39.5,28.22,SW,225,6.0,14.0,50,1.27,,SKC,0.00,VWS V15.00,2013-01-17 06:40:00,
2013-01-17 00:47:00,82.0,65.8,30.04,SE,135,2.0,25.0,58,0.00,,SKC,0.00,VWS V14.01,2013-01-17 06:47:00,
2013-01-17 00:48:00,82.0,66.3,30.04,SE,135,2.0,25.0,59,0.00,,SKC,0.00,VWS V14.01,2013-01-17 06:48:00,
2013-01-17 00:49:00,82.0,66.3,30.04,SE,135,0.0,25.0,59,0.00,,SKC,0.00,VWS V14.01,2013-01-17 06:49:00,
2013-01-17 00:50:00,82.0,66.3,30.04,SE,135,2.0,25.0,59,0.00,,SKC,0.00,VWS V14.01,2013-01-17 06:50:00,
2013-01-17 00:51:00,82.0,65.8,30.04,SE,135,1.0,25.0,58,0.00,,SKC,0.00,VWS V14.01,2013-01-17 06:51:00,
2013-01-17 00:52:00,82.0,66.3,30.04,SE,135,0.0,25.0,59,0.00,,SKC,0.00,VWS V14.01,2013-01-17 06:52:00,
2013-01-17 00:53:00,82.0,65.8,30.04,SE,135,5.0,25.0,58,0.00,,SKC,0.00,VWS V14.01,2013-01-17 06:53:00,
2013-01-17 02:24:00,80.0,65.4,30.05,SSE,157,2.0,36.0,61,1.91,,SKC,0.00,VWS V14.01,2013-01-17 08:24:00,
2013-01-17 02:25:00,80.0,65.4,30.05,South,180,2.0,36.0,61,1.91,,SKC,0.00,VWS V14.01,2013-01-17 08:25:00,
2013-01-17 02:26:00,80.0,65.4,30.05,South,180,2.0,36.0,61,1.91,,SKC,0.00,VWS V14.01,2013-01-17 08:26:00,
2013-01-17 02:27:00,80.0,65.4,30.05,South,180,2.0,36.0,61,1.91,,SKC,0.00,VWS V14.01,2013-01-17 08:27:00,
2013-01-17 02:28:00,81.0,66.3,30.05,SSE,157,0.0,36.0,61,1.91,,SKC,0.00,VWS V14.01,2013-01-17 08:28:00,
2013-01-17 02:29:00,58.0,31.9,30.00,SE,135,0.0,16.0,37,0.00,,SKC,0.00,VWS V14.01,2013-01-17 08:29:00,
2013-01-17 02:30:00,58.0,31.2,30.00,SE,135,6.0,16.0,36,0.00,,SKC,0.00,VWS V14.01,2013-01-17 08:30:00,
2013-01-17 02:31:00,58.0,31.2,30.00,SE,135,3.0,16.0,36,0.00,,SKC,0.00,VWS V14.01,2013-01-17 08:31:00,
2013-01-17 02:32:00,58.0,31.2,30.00,ESE,112,6.0,16.0,36,0.00,,SKC,0.00,VWS V14.01,2013-01-17 08:32:00,
2013-01-17 02:33:00,58.0,31.9,30.00,East,90,3.0,16.0,37,0.00,,SKC,0.00,VWS V14.01,2013-01-17 08:33:00,
2013-01-17 02:34:00,58.0,31.9,30.00,East,90,4.0,16.0,37,0.00,,SKC,0.00,VWS V14.01,2013-01-17 08:34:00,
2013-01-17 06:29:00,35.0,35.0,28.21,ESE,112,0.0,14.0,100,1.27,,SKC,0.00,VWS V15.00,2013-01-17 12:29:00,
2013-01-17 06:30:00,35.0,35.0,28.21,ESE,112,0.0,14.0,100,1.27,,SKC,0.00,VWS V15.00,2013-01-17 12:30:00,
2013-01-17 06:31:00,35.0,35.0,28.21,ESE,112,0.0,14.0,100,1.27,,SKC,0.00,VWS V15.00,2013-01-17 12:31:00,
2013-01-17 06:32:00,35.0,35.0,28.21,ESE,112,0.0,14.0,100,1.27,,SKC,0.00,VWS V15.00,2013-01-17 12:32:00,
2013-01-17 06:33:00,35.0,35.0,28.21,ESE,112,0.0,14.0,100,1.27,,SKC,0.00,VWS V15.00,2013-01-17 12:33:00,
2013-01-17 06:34:00,35.0,35.0,28.21,ESE,112,0.0,14.0,100,1.27,,SKC,0.00,VWS V15.00,2013-01-17 12:34:00,
2013-01-17 06:35:00,35.0,35.0,28.21,ESE,112,1.0,14.0,100,1.27,,SKC,0.00,VWS V15.00,2013-01-17 12:35:00,
2013-01-17 06:36:00,35.0,35.0,28.21,ESE,112,1.0,14.0,100,1.27,,SKC,0.00,VWS V15.00,2013-01-17 12:36:00,
2013-01-17 06:37:00,35.0,35.0,28.21,ESE,112,1.0,14.0,100,1.27,,SKC,0.00,VWS V15.00,2013-01-17 12:37:00,
2013-01-17 06:38:00,36.0,36.0,28.21,ESE,112,0.0,14.0,100,1.27,,SKC,0.00,VWS V15.00,2013-01-17 12:38:00,
2013-01-17 06:39:00,35.0,35.0,28.21,ESE,112,0.0,14.0,100,1.27,,SKC,0.00,VWS V15.00,2013-01-17 12:39:00,
2013-01-17 06:40:00,35.0,35.0,28.21,ESE,112,1.0,14.0,100,1.27,,SKC,0.00,VWS V15.00,2013-01-17 12:40:00,
2013-01-17 06:41:00,35.0,35.0,28.21,ESE,112,1.0,14.0,100,1.27,,SKC,0.00,VWS V15.00,2013-01-17 12:41:00,
2013-01-17 06:42:00,35.0,35.0,28.21,ESE,112,0.0,14.0,100,1.27,,SKC,0.00,VWS V15.00,2013-01-17 12:42:00,
2013-01-17 06:43:00,36.0,36.0,28.21,ESE,112,0.0,14.0,100,1.27,,SKC,0.00,VWS V15.00,2013-01-17 12:43:00,
2013-01-17 06:44:00,35.0,35.0,28.21,ESE,112,0.0,14.0,100,1.27,,SKC,0.00,VWS V15.00,2013-01-17 12:44:00,
2013-01-17 06:45:00,35.0,35.0,28.21,ESE,112,0.0,14.0,100,1.27,,SKC,0.00,VWS V15.00,2013-01-17 12:45:00,
2013-01-17 06:46:00,35.0,35.0,28.21,ESE,112,0.0,14.0,100,1.27,,SKC,0.00,VWS V15.00,2013-01-17 12:46:00,
2013-01-17 06:47:00,35.0,35.0,28.21,ESE,112,0.0,14.0,100,1.27,,SKC,0.00,VWS V15.00,2013-01-17 12:47:00,
2013-01-17 06:48:00,36.0,36.0,28.21,ESE,112,0.0,14.0,100,1.27,,SKC,0.00,VWS V15.00,2013-01-17 12:48:00,
2013-01-17 06:49:00,36.0,36.0,28.21,ESE,112,0.0,14.0,100,1.27,,SKC,0.00,VWS V15.00,2013-01-17 12:49:00,
2013-01-17 07:24:00,48.0,47.2,29.88,South,180,0.0,23.0,97,0.00,,SKC,0.00,VWS V14.01,2013-01-17 13:24:00,
2013-01-17 07:25:00,48.0,47.2,29.88,South,180,0.0,23.0,97,0.00,,SKC,0.00,VWS V14.01,2013-01-17 13:25:00,
2013-01-17 07:26:00,48.0,47.2,29.88,South,180,0.0,23.0,97,0.00,,SKC,0.00,VWS V14.01,2013-01-17 13:26:00,
2013-01-17 07:27:00,48.0,47.2,29.88,South,180,0.0,23.0,97,0.00,,SKC,0.00,VWS V14.01,2013-01-17 13:27:00,
2013-01-17 07:28:00,48.0,47.2,29.88,South,180,0.0,23.0,97,0.00,,SKC,0.00,VWS V14.01,2013-01-17 13:28:00,
2013-01-17 07:29:00,48.0,46.9,29.88,South,180,0.0,23.0,96,0.00,,SKC,0.00,VWS V14.01,2013-01-17 13:29:00,
2013-01-17 07:30:00,48.0,46.9,29.88,South,180,0.0,23.0,96,0.00,,SKC,0.00,VWS V14.01,2013-01-17 13:30:00,
2013-01-17 07:31:00,47.0,45.9,29.88,South,180,0.0,23.0,96,0.00,,SKC,0.00,VWS V14.01,2013-01-17 13:31:00,
2013-01-17 07:32:00,35.0,35.0,28.21,ESE,112,0.0,14.0,100,1.27,,SKC,0.00,VWS V15.00,2013-01-17 13:32:00,
2013-01-17 07:33:00,35.0,35.0,28.21,ESE,112,0.0,14.0,100,1.27,,SKC,0.00,VWS V15.00,2013-01-17 13:33:00,
2013-01-17 07:34:00,61.0,31.7,29.95,SE,135,4.0,36.0,33,0.32,,SKC,0.00,VWS V14.01,2013-01-17 13:34:00,
2013-01-17 07:35:00,61.0,31.7,29.95,SE,135,6.0,36.0,33,0.32,,SKC,0.00,VWS V14.01,2013-01-17 13:35:00,
2013-01-17 07:36:00,61.0,31.7,29.95,SE,135,1.0,36.0,33,0.32,,SKC,0.00,VWS V14.01,2013-01-17 13:36:00,
2013-01-17 07:37:00,61.0,31.7,29.95,SE,135,6.0,36.0,33,0.32,,SKC,0.00,VWS V14.01,2013-01-17 13:37:00,
2013-01-17 07:38:00,61.0,31.7,29.96,East,90,1.0,36.0,33,0.32,,SKC,0.00,VWS V14.01,2013-01-17 13:38:00,
2013-01-17 07:39:00,61.0,32.5,29.96,East,90,1.0,36.0,34,0.32,,SKC,0.00,VWS V14.01,2013-01-17 13:39:00,
2013-01-17 07:42:00,31.0,31.0,30.33,WNW,292,6.0,9.0,100,0.00,,SKC,0.00,VWS V14.01,2013-01-17 13:42:00,
2013-01-17 07:47:00,31.0,31.0,30.33,West,270,4.0,9.0,100,0.00,,SKC,0.00,VWS V14.01,2013-01-17 13:47:00,
2013-01-17 08:25:00,58.0,58.0,29.96,SSW,202,0.0,0.0,100,0.00,,SKC,0.00,VWS V14.01,2013-01-17 14:25:00,
2013-01-17 08:26:00,57.0,57.0,29.96,SSW,202,0.0,0.0,100,0.00,,SKC,0.00,VWS V14.01,2013-01-17 14:26:00,
2013-01-17 08:27:00,57.0,57.0,29.96,SSW,202,0.0,0.0,100,0.00,,SKC,0.00,VWS V14.01,2013-01-17 14:27:00,
2013-01-17 08:28:00,58.0,58.0,29.96,SSW,202,0.0,0.0,100,0.00,,SKC,0.00,VWS V14.01,2013-01-17 14:28:00,
2013-01-17 08:29:00,57.0,57.0,29.96,SSW,202,0.0,0.0,100,0.00,,SKC,0.00,VWS V14.01,2013-01-17 14:29:00,
2013-01-17 08:30:00,57.0,57.0,29.96,SSW,202,0.0,0.0,100,0.00,,SKC,0.00,VWS V14.01,2013-01-17 14:30:00,
2013-01-17 08:31:00,57.0,57.0,29.96,SSW,202,0.0,0.0,100,0.00,,SKC,0.00,VWS V14.01,2013-01-17 14:31:00,
2013-01-17 08:32:00,57.0,57.0,29.96,SSW,202,0.0,0.0,100,0.00,,SKC,0.00,VWS V14.01,2013-01-17 14:32:00,
2013-01-17 08:33:00,57.0,57.0,29.96,SSW,202,0.0,0.0,100,0.00,,SKC,0.00,VWS V14.01,2013-01-17 14:33:00,
2013-01-17 09:00:00,36.0,34.2,30.39,West,270,3.0,9.0,93,0.00,,SKC,0.00,VWS V14.01,2013-01-17 15:00:00,
2013-01-17 09:08:00,46.0,46.0,29.87,SW,225,0.0,23.0,100,0.00,,SKC,0.00,VWS V14.01,2013-01-17 15:08:00,
2013-01-17 09:09:00,46.0,45.7,29.87,SW,225,0.0,23.0,99,0.00,,SKC,0.00,VWS V14.01,2013-01-17 15:09:00,
2013-01-17 09:10:00,46.0,46.0,29.87,SW,225,0.0,23.0,100,0.00,,SKC,0.00,VWS V14.01,2013-01-17 15:10:00,
2013-01-17 09:11:00,46.0,46.0,29.87,SW,225,0.0,23.0,100,0.00,,SKC,0.00,VWS V14.01,2013-01-17 15:11:00,
2013-01-17 09:12:00,46.0,46.0,29.87,SW,225,0.0,23.0,100,0.00,,SKC,0.00,VWS V14.01,2013-01-17 15:12:00,
2013-01-17 10:01:00,43.0,36.0,30.44,WNW,292,5.0,9.0,76,0.00,,SKC,0.00,VWS V14.01,2013-01-17 16:01:00,
2013-01-17 10:06:00,44.0,36.3,30.45,West,270,6.0,9.0,74,0.00,,SKC,0.00,VWS V14.01,2013-01-17 16:06:00,
2013-01-17 10:11:00,44.0,35.9,30.45,West,270,6.0,9.0,73,0.00,,SKC,0.00,VWS V14.01,2013-01-17 16:11:00,
2013-01-17 10:16:00,45.0,36.5,30.45,NW,315,6.0,9.0,72,0.00,,SKC,0.00,VWS V14.01,2013-01-17 16:16:00,
2013-01-17 10:21:00,46.0,37.5,30.46,West,270,6.0,9.0,72,0.00,,SKC,0.00,VWS V14.01,2013-01-17 16:21:00,
2013-01-17 10:26:00,46.0,36.4,30.46,NNW,337,5.0,9.0,69,0.00,,SKC,0.00,VWS V14.01,2013-01-17 16:26:00,
2013-01-17 10:31:00,47.0,37.7,30.46,NNW,337,5.0,9.0,70,0.00,,SKC,0.00,VWS V14.01,2013-01-17 16:31:00,
2013-01-17 10:36:00,48.0,38.0,30.47,NNW,337,2.0,9.0,68,0.00,,SKC,0.00,VWS V14.01,2013-01-17 16:36:00,
2013-01-17 10:41:00,48.0,37.6,30.47,WNW,292,2.0,9.0,67,0.00,,SKC,0.00,VWS V14.01,2013-01-17 16:41:00,
2013-01-17 10:44:00,28.0,28.0,28.16,ESE,112,0.0,14.0,100,1.27,,SKC,0.00,VWS V15.00,2013-01-17 16:44:00,
2013-01-17 10:45:00,28.0,28.0,28.16,ESE,112,0.0,14.0,100,1.27,,SKC,0.00,VWS V15.00,2013-01-17 16:45:00,
2013-01-17 10:46:00,49.0,38.2,30.47,NW,315,1.0,9.0,66,0.00,,SKC,0.00,VWS V14.01,2013-01-17 16:46:00,
2013-01-17 10:47:00,28.0,28.0,28.16,ESE,112,0.0,14.0,100,1.27,,SKC,0.00,VWS V15.00,2013-01-17 16:47:00,
2013-01-17 10:48:00,28.0,28.0,28.16,ESE,112,0.0,14.0,100,1.27,,SKC,0.00,VWS V15.00,2013-01-17 16:48:00,
2013-01-17 10:49:00,28.0,28.0,28.16,ESE,112,0.0,14.0,100,1.27,,SKC,0.00,VWS V15.00,2013-01-17 16:49:00,
2013-01-17 10:51:00,50.0,38.3,30.48,WNW,292,4.0,9.0,64,0.00,,SKC,0.00,VWS V14.01,2013-01-17 16:51:00,
2013-01-17 10:56:00,50.0,37.5,30.48,West,270,6.0,9.0,62,0.00,,SKC,0.00,VWS V14.01,2013-01-17 16:56:00,
2013-01-17 11:01:00,51.0,38.0,30.48,NW,315,1.0,9.0,61,0.00,,SKC,0.00,VWS V14.01,2013-01-17 17:01:00,
2013-01-17 11:06:00,52.0,35.4,30.48,ENE,67,8.0,9.0,53,0.00,,SKC,0.00,VWS V14.01,2013-01-17 17:06:00,
2013-01-17 11:11:00,53.0,35.4,30.48,NNW,337,5.0,9.0,51,0.00,,SKC,0.00,VWS V14.01,2013-01-17 17:11:00,
2013-01-17 11:16:00,54.0,34.2,30.48,NE,45,6.0,9.0,47,0.00,,SKC,0.00,VWS V14.01,2013-01-17 17:16:00,
2013-01-17 11:21:00,54.0,34.8,30.48,NNW,337,4.0,10.0,48,0.00,,SKC,0.00,VWS V14.01,2013-01-17 17:21:00,
2013-01-17 11:26:00,55.0,35.7,30.48,North,360,6.0,10.0,48,0.00,,SKC,0.00,VWS V14.01,2013-01-17 17:26:00,
2013-01-17 11:31:00,54.0,33.7,30.48,NNW,337,2.0,11.0,46,0.00,,SKC,0.00,VWS V14.01,2013-01-17 17:31:00,
2013-01-17 11:36:00,55.0,34.6,30.48,NE,45,10.0,11.0,46,0.00,,SKC,0.00,VWS V14.01,2013-01-17 17:36:00,
2013-01-17 11:41:00,54.0,33.2,30.48,ENE,67,7.0,11.0,45,0.00,,SKC,0.00,VWS V14.01,2013-01-17 17:41:00,
2013-01-17 11:42:00,27.0,27.0,28.15,ESE,112,0.0,14.0,100,1.27,,SKC,0.00,VWS V15.00,2013-01-17 17:42:00,
2013-01-17 11:43:00,27.0,27.0,28.15,ESE,112,0.0,14.0,100,1.27,,SKC,0.00,VWS V15.00,2013-01-17 17:43:00,
2013-01-17 11:44:00,28.0,28.0,28.15,ESE,112,0.0,14.0,100,1.27,,SKC,0.00,VWS V15.00,2013-01-17 17:44:00,
2013-01-17 11:45:00,28.0,28.0,28.15,ESE,112,0.0,14.0,100,1.27,,SKC,0.00,VWS V15.00,2013-01-17 17:45:00,
2013-01-17 11:46:00,55.0,34.6,30.48,North,360,4.0,12.0,46,0.00,,SKC,0.00,VWS V14.01,2013-01-17 17:46:00,
2013-01-17 11:47:00,28.0,28.0,28.15,ESE,112,0.0,14.0,100,1.27,,SKC,0.00,VWS V15.00,2013-01-17 17:47:00,
2013-01-17 11:48:00,28.0,28.0,28.15,ESE,112,0.0,14.0,100,1.27,,SKC,0.00,VWS V15.00,2013-01-17 17:48:00,
2013-01-17 12:16:00,60.0,60.0,29.93,East,90,0.0,25.0,100,0.41,,SKC,0.00,VWS V14.01,2013-01-17 18:16:00,
2013-01-17 12:17:00,60.0,60.0,29.93,East,90,0.0,25.0,100,0.41,,SKC,0.00,VWS V14.01,2013-01-17 18:17:00,
2013-01-17 12:18:00,60.0,60.0,29.93,East,90,0.0,25.0,100,0.41,,SKC,0.00,VWS V14.01,2013-01-17 18:18:00,
2013-01-17 12:19:00,60.0,60.0,29.93,East,90,0.0,25.0,100,0.41,,SKC,0.00,VWS V14.01,2013-01-17 18:19:00,
2013-01-17 12:20:00,60.0,60.0,29.93,East,90,0.0,25.0,100,0.41,,SKC,0.00,VWS V14.01,2013-01-17 18:20:00,
2013-01-17 12:21:00,60.0,60.0,29.93,East,90,0.0,25.0,100,0.41,,SKC,0.00,VWS V14.01,2013-01-17 18:21:00,
2013-01-17 12:22:00,79.0,79.0,30.07,SSW,202,7.0,36.0,100,1.91,,SKC,0.00,VWS V14.01,2013-01-17 18:22:00,
2013-01-17 12:38:00,26.0,26.0,28.14,ESE,112,0.0,14.0,100,1.27,,SKC,0.00,VWS V15.00,2013-01-17 18:38:00,
2013-01-17 12:39:00,26.0,26.0,28.14,ESE,112,0.0,14.0,100,1.27,,SKC,0.00,VWS V15.00,2013-01-17 18:39:00,
2013-01-17 12:40:00,26.0,26.0,28.14,ESE,112,0.0,14.0,100,1.27,,SKC,0.00,VWS V15.00,2013-01-17 18:40:00,
2013-01-17 12:41:00,26.0,26.0,28.14,ESE,112,0.0,14.0,100,1.27,,SKC,0.00,VWS V15.00,2013-01-17 18:41:00,
2013-01-17 12:42:00,26.0,26.0,28.14,ESE,112,0.0,14.0,100,1.27,,SKC,0.00,VWS V15.00,2013-01-17 18:42:00,
2013-01-17 12:43:00,26.0,26.0,28.14,ESE,112,0.0,14.0,100,1.27,,SKC,0.00,VWS V15.00,2013-01-17 18:43:00,
2013-01-17 12:44:00,26.0,26.0,28.14,ESE,112,0.0,14.0,100,1.27,,SKC,0.00,VWS V15.00,2013-01-17 18:44:00,
2013-01-17 13:22:00,25.0,25.0,28.14,ESE,112,0.0,14.0,100,1.27,,SKC,0.00,VWS V15.00,2013-01-17 19:22:00,
2013-01-17 13:23:00,25.0,25.0,28.14,ESE,112,0.0,14.0,100,1.27,,SKC,0.00,VWS V15.00,2013-01-17 19:23:00,
2013-01-17 13:24:00,26.0,26.0,28.14,ESE,112,0.0,14.0,100,1.27,,SKC,0.00,VWS V15.00,2013-01-17 19:24:00,
2013-01-17 13:25:00,25.0,25.0,28.14,ESE,112,0.0,14.0,100,1.27,,SKC,0.00,VWS V15.00,2013-01-17 19:25:00,
2013-01-17 13:26:00,25.0,25.0,28.14,ESE,112,0.0,14.0,100,1.27,,SKC,0.00,VWS V15.00,2013-01-17 19:26:00,
2013-01-17 13:27:00,26.0,26.0,28.14,ESE,112,0.0,14.0,100,1.27,,SKC,0.00,VWS V15.00,2013-01-17 19:27:00,
2013-01-17 13:29:00,26.0,26.0,28.14,ESE,112,0.0,14.0,100,1.27,,SKC,0.00,VWS V15.00,2013-01-17 19:29:00,
2013-01-17 13:30:00,25.0,25.0,28.14,ESE,112,0.0,14.0,100,1.27,,SKC,0.00,VWS V15.00,2013-01-17 19:30:00,
2013-01-17 13:31:00,25.0,25.0,28.14,ESE,112,0.0,14.0,100,1.27,,SKC,0.00,VWS V15.00,2013-01-17 19:31:00,
2013-01-17 13:33:00,25.0,25.0,28.14,ESE,112,0.0,14.0,100,1.27,,SKC,0.00,VWS V15.00,2013-01-17 19:33:00,
2013-01-17 13:34:00,26.0,26.0,28.14,ESE,112,0.0,14.0,100,1.27,,SKC,0.00,VWS V15.00,2013-01-17 19:34:00,
2013-01-17 13:35:00,26.0,26.0,28.14,ESE,112,0.0,14.0,100,1.27,,SKC,0.00,VWS V15.00,2013-01-17 19:35:00,
2013-01-17 13:36:00,26.0,26.0,28.14,ESE,112,0.0,14.0,100,1.27,,SKC,0.00,VWS V15.00,2013-01-17 19:36:00,
2013-01-17 13:37:00,26.0,26.0,28.14,ESE,112,0.0,14.0,100,1.27,,SKC,0.00,VWS V15.00,2013-01-17 19:37:00,
2013-01-17 13:38:00,26.0,26.0,28.14,ESE,112,0.0,14.0,100,1.27,,SKC,0.00,VWS V15.00,2013-01-17 19:38:00,
2013-01-17 13:39:00,26.0,26.0,28.14,ESE,112,0.0,14.0,100,1.27,,SKC,0.00,VWS V15.00,2013-01-17 19:39:00,
2013-01-17 13:40:00,26.0,26.0,28.14,ESE,112,0.0,14.0,100,1.27,,SKC,0.00,VWS V15.00,2013-01-17 19:40:00,
2013-01-17 13:41:00,26.0,26.0,28.14,ESE,112,0.0,14.0,100,1.27,,SKC,0.00,VWS V15.00,2013-01-17 19:41:00,
2013-01-17 13:42:00,26.0,26.0,28.14,ESE,112,0.0,14.0,100,1.27,,SKC,0.00,VWS V15.00,2013-01-17 19:42:00,
2013-01-17 13:44:00,26.0,26.0,28.13,ESE,112,0.0,14.0,100,1.27,,SKC,0.00,VWS V15.00,2013-01-17 19:44:00,
2013-01-17 13:45:00,26.0,26.0,28.13,ESE,112,0.0,14.0,100,1.27,,SKC,0.00,VWS V15.00,2013-01-17 19:45:00,
2013-01-17 13:46:00,26.0,26.0,28.13,ESE,112,0.0,14.0,100,1.27,,SKC,0.00,VWS V15.00,2013-01-17 19:46:00,
2013-01-17 13:47:00,26.0,26.0,28.13,ESE,112,0.0,14.0,100,1.27,,SKC,0.00,VWS V15.00,2013-01-17 19:47:00,
2013-01-17 13:48:00,26.0,26.0,28.13,ESE,112,0.0,14.0,100,1.27,,SKC,0.00,VWS V15.00,2013-01-17 19:48:00,
2013-01-17 14:17:00,65.0,61.4,29.79,South,180,12.0,19.0,88,0.00,,SKC,0.00,VWS V14.01,2013-01-17 20:17:00,
2013-01-17 14:18:00,65.0,61.4,29.79,South,180,10.0,19.0,88,0.00,,SKC,0.00,VWS V14.01,2013-01-17 20:18:00,
2013-01-17 14:19:00,65.0,61.4,29.79,South,180,7.0,19.0,88,0.00,,SKC,0.00,VWS V14.01,2013-01-17 20:19:00,
2013-01-17 14:20:00,65.0,61.4,29.79,SSW,202,7.0,19.0,88,0.00,,SKC,0.00,VWS V14.01,2013-01-17 20:20:00,
2013-01-17 14:21:00,65.0,61.4,29.79,SSW,202,11.0,19.0,88,0.00,,SKC,0.00,VWS V14.01,2013-01-17 20:21:00,
2013-01-17 14:27:00,25.0,25.0,28.14,South,180,0.0,14.0,100,1.27,,SKC,0.00,VWS V15.00,2013-01-17 20:27:00,
2013-01-17 14:28:00,25.0,25.0,28.14,South,180,0.0,14.0,100,1.27,,SKC,0.00,VWS V15.00,2013-01-17 20:28:00,
2013-01-17 14:29:00,82.0,67.7,30.12,East,90,4.0,24.0,62,0.00,,SKC,0.00,VWS V14.01,2013-01-17 20:29:00,
2013-01-17 14:30:00,82.0,67.7,30.12,ENE,67,9.0,24.0,62,0.00,,SKC,0.00,VWS V14.01,2013-01-17 20:30:00,
2013-01-17 14:31:00,82.0,67.7,30.12,ESE,112,7.0,24.0,62,0.00,,SKC,0.00,VWS V14.01,2013-01-17 20:31:00,
2013-01-17 14:32:00,82.0,67.7,30.12,East,90,5.0,24.0,62,0.00,,SKC,0.00,VWS V14.01,2013-01-17 20:32:00,
2013-01-17 14:33:00,82.0,67.7,30.12,NE,45,3.0,24.0,62,0.00,,SKC,0.00,VWS V14.01,2013-01-17 20:33:00,
2013-01-17 14:34:00,82.0,67.7,30.12,SE,135,3.0,24.0,62,0.00,,SKC,0.00,VWS V14.01,2013-01-17 20:34:00,
2013-01-17 14:35:00,25.0,25.0,28.13,South,180,0.0,14.0,100,1.27,,SKC,0.00,VWS V15.00,2013-01-17 20:35:00,
2013-01-17 14:36:00,25.0,25.0,28.13,South,180,0.0,14.0,100,1.27,,SKC,0.00,VWS V15.00,2013-01-17 20:36:00,
2013-01-17 14:37:00,25.0,25.0,28.13,South,180,0.0,14.0,100,1.27,,SKC,0.00,VWS V15.00,2013-01-17 20:37:00,
2013-01-17 14:38:00,25.0,25.0,28.13,South,180,0.0,14.0,100,1.27,,SKC,0.00,VWS V15.00,2013-01-17 20:38:00,
2013-01-17 14:39:00,25.0,25.0,28.13,South,180,0.0,14.0,100,1.27,,SKC,0.00,VWS V15.00,2013-01-17 20:39:00,
2013-01-17 14:40:00,25.0,25.0,28.13,South,180,0.0,14.0,100,1.27,,SKC,0.00,VWS V15.00,2013-01-17 20:40:00,
2013-01-17 14:45:00,58.0,32.6,30.41,NE,45,5.0,13.0,38,0.00,,SKC,0.00,VWS V14.01,2013-01-17 20:45:00,
2013-01-17 14:50:00,58.0,32.6,30.41,NE,45,8.0,13.0,38,0.00,,SKC,0.00,VWS V14.01,2013-01-17 20:50:00,
2013-01-17 14:55:00,59.0,34.1,30.41,North,360,5.0,13.0,39,0.00,,SKC,0.00,VWS V14.01,2013-01-17 20:55:00,
2013-01-17 15:00:00,59.0,33.5,30.41,NE,45,13.0,13.0,38,0.00,,SKC,0.00,VWS V14.01,2013-01-17 21:00:00,
2013-01-17 15:01:00,69.0,62.6,29.79,South,180,8.0,19.0,80,0.00,,SKC,0.00,VWS V14.01,2013-01-17 21:01:00,
2013-01-17 15:02:00,69.0,62.6,29.79,South,180,8.0,19.0,80,0.00,,SKC,0.00,VWS V14.01,2013-01-17 21:02:00,
2013-01-17 15:03:00,69.0,62.6,29.79,SW,225,7.0,19.0,80,0.00,,SKC,0.00,VWS V14.01,2013-01-17 21:03:00,
2013-01-17 15:04:00,69.0,62.6,29.79,South,180,6.0,19.0,80,0.00,,SKC,0.00,VWS V14.01,2013-01-17 21:04:00,
2013-01-17 15:05:00,58.0,32.6,30.41,NNE,22,6.0,13.0,38,0.00,,SKC,0.00,VWS V14.01,2013-01-17 21:05:00,
2013-01-17 15:10:00,59.0,33.5,30.41,NE,45,7.0,14.0,38,0.00,,SKC,0.00,VWS V14.01,2013-01-17 21:10:00,
2013-01-17 15:11:00,70.0,63.5,29.79,SSW,202,9.0,19.0,80,0.00,,SKC,0.00,VWS V14.01,2013-01-17 21:11:00,
2013-01-17 15:12:00,70.0,63.2,29.79,WSW,247,7.0,19.0,79,0.00,,SKC,0.00,VWS V14.01,2013-01-17 21:12:00,
2013-01-17 15:13:00,70.0,62.8,29.79,South,180,6.0,19.0,78,0.00,,SKC,0.00,VWS V14.01,2013-01-17 21:13:00,
2013-01-17 15:14:00,70.0,62.8,29.79,SW,225,13.0,19.0,78,0.00,,SKC,0.00,VWS V14.01,2013-01-17 21:14:00,
2013-01-17 15:15:00,59.0,33.5,30.41,North,360,6.0,14.0,38,0.00,,SKC,0.00,VWS V14.01,2013-01-17 21:15:00,
2013-01-17 15:16:00,70.0,62.8,29.79,SSW,202,8.0,19.0,78,0.00,,SKC,0.00,VWS V14.01,2013-01-17 21:16:00,
2013-01-17 15:17:00,70.0,62.8,29.79,South,180,8.0,19.0,78,0.00,,SKC,0.00,VWS V14.01,2013-01-17 21:17:00,
2013-01-17 15:18:00,70.0,62.8,29.79,SSW,202,8.0,19.0,78,0.00,,SKC,0.00,VWS V14.01,2013-01-17 21:18:00,
2013-01-17 15:19:00,70.0,62.8,29.79,SW,225,9.0,19.0,78,0.00,,SKC,0.00,VWS V14.01,2013-01-17 21:19:00,
2013-01-17 15:20:00,59.0,32.1,30.41,ENE,67,6.0,15.0,36,0.00,,SKC,0.00,VWS V14.01,2013-01-17 21:20:00,
2013-01-17 15:21:00,70.0,62.8,29.79,South,180,7.0,19.0,78,0.00,,SKC,0.00,VWS V14.01,2013-01-17 21:21:00,
2013-01-17 15:22:00,70.0,62.8,29.79,SSW,202,7.0,19.0,78,0.00,,SKC,0.00,VWS V14.01,2013-01-17 21:22:00,
2013-01-17 15:25:00,59.0,34.1,30.41,NNE,22,7.0,15.0,39,0.00,,SKC,0.00,VWS V14.01,2013-01-17 21:25:00,
2013-01-17 15:30:00,59.0,32.8,30.41,NE,45,15.0,15.0,37,0.00,,SKC,0.00,VWS V14.01,2013-01-17 21:30:00,
2013-01-17 15:35:00,59.0,32.1,30.41,NNE,22,5.0,15.0,36,0.00,,SKC,0.00,VWS V14.01,2013-01-17 21:35:00,
2013-01-17 15:40:00,59.0,32.1,30.41,NE,45,7.0,15.0,36,0.00,,SKC,0.00,VWS V14.01,2013-01-17 21:40:00,
2013-01-17 15:45:00,58.0,32.6,30.41,NE,45,8.0,15.0,38,0.00,,SKC,0.00,VWS V14.01,2013-01-17 21:45:00,
2013-01-17 15:50:00,59.0,32.1,30.41,NNE,22,5.0,15.0,36,0.00,,SKC,0.00,VWS V14.01,2013-01-17 21:50:00,
2013-01-17 15:55:00,59.0,32.1,30.42,NE,45,6.0,15.0,36,0.00,,SKC,0.00,VWS V14.01,2013-01-17 21:55:00,
2013-01-17 16:00:00,59.0,32.1,30.42,East,90,5.0,15.0,36,0.00,,SKC,0.00,VWS V14.01,2013-01-17 22:00:00,
2013-01-17 16:05:00,59.0,32.1,30.42,East,90,7.0,15.0,36,0.00,,SKC,0.00,VWS V14.01,2013-01-17 22:05:00,
2013-01-17 16:10:00,59.0,32.8,30.42,NE,45,4.0,15.0,37,0.00,,SKC,0.00,VWS V14.01,2013-01-17 22:10:00,
2013-01-17 16:15:00,58.0,31.2,30.42,ENE,67,8.0,15.0,36,0.00,,SKC,0.00,VWS V14.01,2013-01-17 22:15:00,
2013-01-17 16:20:00,58.0,31.2,30.42,NE,45,6.0,15.0,36,0.00,,SKC,0.00,VWS V14.01,2013-01-17 22:20:00,
2013-01-17 16:25:00,58.0,31.2,30.42,NE,45,7.0,15.0,36,0.00,,SKC,0.00,VWS V14.01,2013-01-17 22:25:00,
2013-01-17 16:27:00,23.0,23.0,28.13,South,180,0.0,14.0,100,1.27,,SKC,0.00,VWS V15.00,2013-01-17 22:27:00,
2013-01-17 16:28:00,23.0,23.0,28.13,South,180,0.0,14.0,100,1.27,,SKC,0.00,VWS V15.00,2013-01-17 22:28:00,
2013-01-17 16:29:00,23.0,23.0,28.12,South,180,0.0,14.0,100,1.27,,SKC,0.00,VWS V15.00,2013-01-17 22:29:00,
2013-01-17 16:30:00,58.0,31.2,30.42,ENE,67,7.0,15.0,36,0.00,,SKC,0.00,VWS V14.01,2013-01-17 22:30:00,
2013-01-17 16:31:00,23.0,23.0,28.12,South,180,0.0,14.0,100,1.27,,SKC,0.00,VWS V15.00,2013-01-17 22:31:00,
2013-01-17 16:32:00,23.0,23.0,28.12,South,180,0.0,14.0,100,1.27,,SKC,0.00,VWS V15.00,2013-01-17 22:32:00,
2013-01-17 16:33:00,23.0,23.0,28.12,South,180,0.0,14.0,100,1.27,,SKC,0.00,VWS V15.00,2013-01-17 22:33:00,
2013-01-17 16:34:00,23.0,23.0,28.12,South,180,0.0,14.0,100,1.27,,SKC,0.00,VWS V15.00,2013-01-17 22:34:00,
2013-01-17 16:35:00,58.0,31.9,30.42,NNE,22,2.0,15.0,37,0.00,,SKC,0.00,VWS V14.01,2013-01-17 22:35:00,
2013-01-17 16:40:00,58.0,32.6,30.43,NE,45,3.0,15.0,38,0.00,,SKC,0.00,VWS V14.01,2013-01-17 22:40:00,
2013-01-17 16:45:00,58.0,32.6,30.42,NE,45,4.0,15.0,38,0.00,,SKC,0.00,VWS V14.01,2013-01-17 22:45:00,
2013-01-17 16:50:00,58.0,32.6,30.43,ENE,67,9.0,15.0,38,0.00,,SKC,0.00,VWS V14.01,2013-01-17 22:50:00,
2013-01-17 16:55:00,58.0,33.2,30.43,ENE,67,5.0,15.0,39,0.00,,SKC,0.00,VWS V14.01,2013-01-17 22:55:00,
2013-01-17 17:00:00,58.0,32.6,30.43,East,90,3.0,15.0,38,0.00,,SKC,0.00,VWS V14.01,2013-01-17 23:00:00,
2013-01-17 17:05:00,58.0,32.6,30.43,ENE,67,6.0,15.0,38,0.00,,SKC,0.00,VWS V14.01,2013-01-17 23:05:00,
2013-01-17 17:10:00,58.0,32.6,30.43,East,90,6.0,15.0,38,0.00,,SKC,0.00,VWS V14.01,2013-01-17 23:10:00,
2013-01-17 17:15:00,58.0,32.6,30.43,East,90,4.0,15.0,38,0.00,,SKC,0.00,VWS V14.01,2013-01-17 23:15:00,
2013-01-17 17:20:00,58.0,32.6,30.43,East,90,5.0,15.0,38,0.00,,SKC,0.00,VWS V14.01,2013-01-17 23:20:00,
2013-01-17 17:25:00,57.0,31.7,30.43,ENE,67,4.0,15.0,38,0.00,,SKC,0.00,VWS V14.01,2013-01-17 23:25:00,
2013-01-17 17:30:00,57.0,31.7,30.43,NE,45,6.0,15.0,38,0.00,,SKC,0.00,VWS V14.01,2013-01-17 23:30:00,
2013-01-17 17:35:00,57.0,32.3,30.42,East,90,3.0,15.0,39,0.00,,SKC,0.00,VWS V14.01,2013-01-17 23:35:00,
2013-01-17 17:38:00,35.0,35.0,28.17,SW,225,2.0,14.0,100,1.27,,SKC,0.00,VWS V15.00,2013-01-17 23:38:00,
2013-01-17 17:39:00,35.0,35.0,28.17,WSW,247,3.0,14.0,100,1.27,,SKC,0.00,VWS V15.00,2013-01-17 23:39:00,
2013-01-17 17:40:00,56.0,31.4,30.42,East,90,3.0,15.0,39,0.00,,SKC,0.00,VWS V14.01,2013-01-17 23:40:00,
2013-01-17 17:41:00,35.0,35.0,28.17,SW,225,1.0,14.0,100,1.27,,SKC,0.00,VWS V15.00,2013-01-17 23:41:00,
2013-01-17 17:42:00,35.0,35.0,28.17,SW,225,3.0,14.0,100,1.27,,SKC,0.00,VWS V15.00,2013-01-17 23:42:00,
2013-01-17 17:45:00,56.0,32.0,30.42,ENE,67,4.0,15.0,40,0.00,,SKC,0.00,VWS V14.01,2013-01-17 23:45:00,
2013-01-17 17:50:00,55.0,31.1,30.42,ENE,67,4.0,15.0,40,0.00,,SKC,0.00,VWS V14.01,2013-01-17 23:50:00,
2013-01-17 17:55:00,55.0,31.8,30.41,East,90,4.0,15.0,41,0.00,,SKC,0.00,VWS V14.01,2013-01-17 23:55:00,
2013-01-17 18:00:00,54.0,31.5,30.41,East,90,3.0,15.0,42,0.00,,SKC,0.00,VWS V14.01,2013-01-18 00:00:00,
2013-01-17 18:05:00,54.0,32.0,30.41,East,90,2.0,15.0,43,0.00,,SKC,0.00,VWS V14.01,2013-01-18 00:05:00,
2013-01-17 18:10:00,53.0,31.1,30.41,East,90,1.0,15.0,43,0.00,,SKC,0.00,VWS V14.01,2013-01-18 00:10:00,
2013-01-17 18:15:00,52.0,30.8,30.41,East,90,1.0,15.0,44,0.00,,SKC,0.00,VWS V14.01,2013-01-18 00:15:00,
2013-01-17 18:20:00,52.0,30.8,30.41,East,90,0.0,15.0,44,0.00,,SKC,0.00,VWS V14.01,2013-01-18 00:20:00,
2013-01-17 18:25:00,51.0,30.4,30.41,East,90,2.0,15.0,45,0.00,,SKC,0.00,VWS V14.01,2013-01-18 00:25:00,
2013-01-17 18:28:00,44.0,44.0,28.19,SW,225,9.0,14.0,100,1.27,,SKC,0.00,VWS V15.00,2013-01-18 00:28:00,
2013-01-17 18:29:00,44.0,44.0,28.19,SSW,202,5.0,14.0,100,1.27,,SKC,0.00,VWS V15.00,2013-01-18 00:29:00,
2013-01-17 18:30:00,51.0,30.4,30.41,East,90,2.0,15.0,45,0.00,,SKC,0.00,VWS V14.01,2013-01-18 00:30:00,
2013-01-17 18:31:00,44.0,44.0,28.19,South,180,6.0,14.0,100,1.27,,SKC,0.00,VWS V15.00,2013-01-18 00:31:00,
2013-01-17 18:32:00,44.0,44.0,28.19,SSW,202,6.0,14.0,100,1.27,,SKC,0.00,VWS V15.00,2013-01-18 00:32:00,
2013-01-17 18:33:00,44.0,44.0,28.19,SSW,202,7.0,14.0,100,1.27,,SKC,0.00,VWS V15.00,2013-01-18 00:33:00,
2013-01-17 18:34:00,50.0,30.0,30.40,East,90,2.0,15.0,46,0.00,,SKC,0.00,VWS V14.01,2013-01-18 00:34:00,
2013-01-17 18:39:00,50.0,30.6,30.41,East,90,0.0,15.0,47,0.00,,SKC,0.00,VWS V14.01,2013-01-18 00:39:00,
2013-01-17 18:44:00,49.0,29.7,30.40,East,90,0.0,15.0,47,0.00,,SKC,0.00,VWS V14.01,2013-01-18 00:44:00,
2013-01-17 18:49:00,48.0,29.8,30.40,East,90,0.0,15.0,49,0.00,,SKC,0.00,VWS V14.01,2013-01-18 00:49:00,
2013-01-17 18:54:00,47.0,29.3,30.40,East,90,0.0,15.0,50,0.00,,SKC,0.00,VWS V14.01,2013-01-18 00:54:00,
2013-01-17 18:59:00,46.0,29.8,30.40,East,90,0.0,15.0,53,0.00,,SKC,0.00,VWS V14.01,2013-01-18 00:59:00,
2013-01-17 19:04:00,45.0,29.8,30.39,East,90,0.0,15.0,55,0.00,,SKC,0.00,VWS V14.01,2013-01-18 01:04:00,
2013-01-17 19:09:00,45.0,29.8,30.39,East,90,0.0,15.0,55,0.00,,SKC,0.00,VWS V14.01,2013-01-18 01:09:00,
2013-01-17 19:10:00,60.0,60.0,29.96,NE,45,7.0,25.0,100,0.42,,SKC,0.01,VWS V14.01,2013-01-18 01:10:00,
2013-01-17 19:11:00,60.0,60.0,29.96,NE,45,6.0,25.0,100,0.42,,SKC,0.01,VWS V14.01,2013-01-18 01:11:00,
2013-01-17 19:12:00,60.0,60.0,29.96,NE,45,3.0,25.0,100,0.42,,SKC,0.01,VWS V14.01,2013-01-18 01:12:00,
2013-01-17 19:13:00,60.0,60.0,29.96,ENE,67,6.0,25.0,100,0.42,,SKC,0.01,VWS V14.01,2013-01-18 01:13:00,
2013-01-17 19:14:00,44.0,29.8,30.39,East,90,0.0,15.0,57,0.00,,SKC,0.00,VWS V14.01,2013-01-18 01:14:00,
2013-01-17 19:19:00,44.0,30.2,30.39,East,90,0.0,15.0,58,0.00,,SKC,0.00,VWS V14.01,2013-01-18 01:19:00,
2013-01-17 19:24:00,43.0,30.1,30.39,East,90,0.0,15.0,60,0.00,,SKC,0.00,VWS V14.01,2013-01-18 01:24:00,
2013-01-17 19:29:00,43.0,30.1,30.39,East,90,0.0,15.0,60,0.00,,SKC,0.00,VWS V14.01,2013-01-18 01:29:00,
2013-01-17 19:34:00,42.0,29.5,30.39,East,90,0.0,15.0,61,0.00,,SKC,0.00,VWS V14.01,2013-01-18 01:34:00,
2013-01-17 19:39:00,42.0,29.9,30.39,East,90,0.0,15.0,62,0.00,,SKC,0.00,VWS V14.01,2013-01-18 01:39:00,
2013-01-17 19:44:00,42.0,30.7,30.39,East,90,0.0,15.0,64,0.00,,SKC,0.00,VWS V14.01,2013-01-18 01:44:00,
2013-01-17 19:49:00,41.0,30.1,30.39,East,90,0.0,15.0,65,0.00,,SKC,0.00,VWS V14.01,2013-01-18 01:49:00,
2013-01-17 19:54:00,41.0,30.5,30.39,East,90,0.0,15.0,66,0.00,,SKC,0.00,VWS V14.01,2013-01-18 01:54:00,
2013-01-17 19:59:00,40.0,30.3,30.39,East,90,0.0,15.0,68,0.00,,SKC,0.00,VWS V14.01,2013-01-18 01:59:00,
2013-01-17 20:04:00,40.0,31.4,30.39,East,90,0.0,15.0,71,0.00,,SKC,0.00,VWS V14.01,2013-01-18 02:04:00,
2013-01-17 20:09:00,39.0,31.8,30.39,East,90,0.0,15.0,75,0.00,,SKC,0.00,VWS V14.01,2013-01-18 02:09:00,
2013-01-17 20:14:00,39.0,31.1,30.39,East,90,0.0,15.0,73,0.00,,SKC,0.00,VWS V14.01,2013-01-18 02:14:00,
2013-01-17 20:19:00,39.0,31.1,30.39,East,90,0.0,15.0,73,0.00,,SKC,0.00,VWS V14.01,2013-01-18 02:19:00,
2013-01-17 20:24:00,39.0,30.8,30.39,East,90,0.0,15.0,72,0.00,,SKC,0.00,VWS V14.01,2013-01-18 02:24:00,
2013-01-17 20:27:00,56.0,41.5,28.18,SSE,157,7.0,15.0,58,1.27,,SKC,0.00,VWS V15.00,2013-01-18 02:27:00,
2013-01-17 20:28:00,56.0,41.9,28.18,SSE,157,8.0,15.0,59,1.27,,SKC,0.00,VWS V15.00,2013-01-18 02:28:00,
2013-01-17 20:29:00,39.0,31.1,30.39,East,90,0.0,15.0,73,0.00,,SKC,0.00,VWS V14.01,2013-01-18 02:29:00,
2013-01-17 20:30:00,56.0,41.0,28.17,South,180,3.0,15.0,57,1.27,,SKC,0.00,VWS V15.00,2013-01-18 02:30:00,
2013-01-17 20:31:00,56.0,41.0,28.17,South,180,7.0,15.0,57,1.27,,SKC,0.00,VWS V15.00,2013-01-18 02:31:00,
2013-01-17 20:32:00,56.0,41.0,28.17,ESE,112,5.0,15.0,57,1.27,,SKC,0.00,VWS V15.00,2013-01-18 02:32:00,
2013-01-17 20:34:00,38.0,30.8,30.39,East,90,0.0,15.0,75,0.00,,SKC,0.00,VWS V14.01,2013-01-18 02:34:00,
2013-01-17 20:39:00,38.0,31.8,30.39,East,90,0.0,15.0,78,0.00,,SKC,0.00,VWS V14.01,2013-01-18 02:39:00,
2013-01-17 20:44:00,38.0,31.8,30.39,East,90,0.0,15.0,78,0.00,,SKC,0.00,VWS V14.01,2013-01-18 02:44:00,
2013-01-17 20:49:00,38.0,31.1,30.38,East,90,0.0,15.0,76,0.00,,SKC,0.00,VWS V14.01,2013-01-18 02:49:00,
2013-01-17 20:54:00,38.0,31.4,30.38,East,90,0.0,15.0,77,0.00,,SKC,0.00,VWS V14.01,2013-01-18 02:54:00,
2013-01-17 20:59:00,38.0,31.8,30.39,East,90,0.0,15.0,78,0.00,,SKC,0.00,VWS V14.01,2013-01-18 02:59:00,
2013-01-17 21:04:00,37.0,31.1,30.39,East,90,0.0,15.0,79,0.00,,SKC,0.00,VWS V14.01,2013-01-18 03:04:00,
2013-01-17 21:09:00,37.0,31.1,30.39,East,90,0.0,15.0,79,0.00,,SKC,0.00,VWS V14.01,2013-01-18 03:09:00,
2013-01-17 21:14:00,37.0,31.4,30.39,East,90,0.0,15.0,80,0.00,,SKC,0.00,VWS V14.01,2013-01-18 03:14:00,
2013-01-17 21:19:00,37.0,31.4,30.39,East,90,0.0,15.0,80,0.00,,SKC,0.00,VWS V14.01,2013-01-18 03:19:00,
2013-01-17 21:24:00,37.0,31.1,30.39,East,90,0.0,15.0,79,0.00,,SKC,0.00,VWS V14.01,2013-01-18 03:24:00,
2013-01-17 21:27:00,58.0,40.0,28.13,SW,225,11.0,19.0,51,1.27,,SKC,0.00,VWS V15.00,2013-01-18 03:27:00,
2013-01-17 21:28:00,58.0,40.0,28.13,South,180,6.0,19.0,51,1.27,,SKC,0.00,VWS V15.00,2013-01-18 03:28:00,
2013-01-17 21:29:00,37.0,31.1,30.39,East,90,0.0,15.0,79,0.00,,SKC,0.00,VWS V14.01,2013-01-18 03:29:00,
2013-01-17 21:30:00,58.0,40.0,28.13,SW,225,8.0,19.0,51,1.27,,SKC,0.00,VWS V15.00,2013-01-18 03:30:00,
2013-01-17 21:31:00,58.0,40.0,28.13,South,180,6.0,19.0,51,1.27,,SKC,0.00,VWS V15.00,2013-01-18 03:31:00,
2013-01-17 21:32:00,58.0,40.0,28.13,SSW,202,9.0,19.0,51,1.27,,SKC,0.00,VWS V15.00,2013-01-18 03:32:00,
2013-01-17 21:34:00,36.0,30.8,30.39,East,90,0.0,15.0,81,0.00,,SKC,0.00,VWS V14.01,2013-01-18 03:34:00,
2013-01-17 21:39:00,36.0,31.0,30.39,East,90,0.0,15.0,82,0.00,,SKC,0.00,VWS V14.01,2013-01-18 03:39:00,
2013-01-17 21:40:00,43.0,28.4,29.63,West,270,10.0,14.0,56,0.39,,SKC,0.04,VWS V14.01,2013-01-18 03:40:00,
2013-01-17 21:44:00,36.0,31.6,30.39,East,90,0.0,15.0,84,0.00,,SKC,0.00,VWS V14.01,2013-01-18 03:44:00,
2013-01-17 21:49:00,36.0,31.6,30.39,East,90,0.0,15.0,84,0.00,,SKC,0.00,VWS V14.01,2013-01-18 03:49:00,
2013-01-17 21:54:00,36.0,32.2,30.39,East,90,0.0,15.0,86,0.00,,SKC,0.00,VWS V14.01,2013-01-18 03:54:00,
2013-01-17 21:59:00,36.0,31.9,30.39,East,90,0.0,15.0,85,0.00,,SKC,0.00,VWS V14.01,2013-01-18 03:59:00,
2013-01-17 22:04:00,36.0,31.6,30.39,East,90,0.0,15.0,84,0.00,,SKC,0.00,VWS V14.01,2013-01-18 04:04:00,
2013-01-17 22:09:00,36.0,31.6,30.39,East,90,0.0,15.0,84,0.00,,SKC,0.00,VWS V14.01,2013-01-18 04:09:00,
2013-01-17 22:14:00,36.0,31.6,30.39,East,90,0.0,15.0,84,0.00,,SKC,0.00,VWS V14.01,2013-01-18 04:14:00,
2013-01-17 22:19:00,35.0,31.0,30.39,East,90,0.0,15.0,85,0.00,,SKC,0.00,VWS V14.01,2013-01-18 04:19:00,
2013-01-17 22:24:00,35.0,31.2,30.39,East,90,0.0,15.0,86,0.00,,SKC,0.00,VWS V14.01,2013-01-18 04:24:00,
2013-01-17 22:29:00,35.0,31.2,30.39,East,90,0.0,15.0,86,0.00,,SKC,0.00,VWS V14.01,2013-01-18 04:29:00,
2013-01-17 22:33:00,60.0,40.3,28.09,SW,225,11.0,19.0,48,1.27,,SKC,0.00,VWS V15.00,2013-01-18 04:33:00,
2013-01-17 22:34:00,36.0,32.2,30.39,East,90,0.0,15.0,86,0.00,,SKC,0.00,VWS V14.01,2013-01-18 04:34:00,
2013-01-17 22:35:00,60.0,40.8,28.09,SSW,202,4.0,19.0,49,1.27,,SKC,0.00,VWS V15.00,2013-01-18 04:35:00,
2013-01-17 22:36:00,60.0,39.7,28.09,SSW,202,7.0,19.0,47,1.27,,SKC,0.00,VWS V15.00,2013-01-18 04:36:00,
2013-01-17 22:37:00,60.0,40.8,28.09,South,180,10.0,19.0,49,1.27,,SKC,0.00,VWS V15.00,2013-01-18 04:37:00,
2013-01-17 22:38:00,60.0,40.3,28.09,SSW,202,5.0,19.0,48,1.27,,SKC,0.00,VWS V15.00,2013-01-18 04:38:00,
2013-01-17 22:39:00,36.0,32.5,30.40,East,90,0.0,15.0,87,0.00,,SKC,0.00,VWS V14.01,2013-01-18 04:39:00,
2013-01-17 22:40:00,60.0,39.7,28.09,South,180,4.0,19.0,47,1.27,,SKC,0.00,VWS V15.00,2013-01-18 04:40:00,
2013-01-17 22:41:00,60.0,40.8,28.09,South,180,15.0,19.0,49,1.27,,SKC,0.00,VWS V15.00,2013-01-18 04:41:00,
2013-01-17 22:42:00,60.0,40.8,28.09,South,180,5.0,19.0,49,1.27,,SKC,0.00,VWS V15.00,2013-01-18 04:42:00,
2013-01-17 22:43:00,60.0,40.8,28.09,South,180,4.0,19.0,49,1.27,,SKC,0.00,VWS V15.00,2013-01-18 04:43:00,
2013-01-17 22:44:00,37.0,32.9,30.40,East,90,0.0,15.0,85,0.00,,SKC,0.00,VWS V14.01,2013-01-18 04:44:00,
2013-01-17 22:49:00,36.0,31.4,30.39,East,90,0.0,15.0,83,0.00,,SKC,0.00,VWS V14.01,2013-01-18 04:49:00,
2013-01-17 22:54:00,36.0,32.2,30.39,East,90,0.0,15.0,86,0.00,,SKC,0.00,VWS V14.01,2013-01-18 04:54:00,
2013-01-17 22:56:00,42.0,29.9,29.66,West,270,11.0,14.0,62,0.43,,SKC,0.04,VWS V14.01,2013-01-18 04:56:00,
2013-01-17 22:57:00,42.0,30.7,29.66,WSW,247,5.0,14.0,64,78.99,,SKC,0.04,VWS V14.01,2013-01-18 04:57:00,
2013-01-17 22:58:00,42.0,30.7,29.66,West,270,7.0,17.0,64,0.43,,SKC,0.04,VWS V14.01,2013-01-18 04:58:00,
2013-01-17 22:59:00,35.0,31.5,30.39,East,90,0.0,15.0,87,0.00,,SKC,0.00,VWS V14.01,2013-01-18 04:59:00,
2013-01-17 23:00:00,42.0,31.5,29.66,WSW,247,6.0,17.0,66,0.43,,SKC,0.04,VWS V14.01,2013-01-18 05:00:00,
2013-01-17 23:01:00,42.0,32.6,29.66,West,270,10.0,17.0,69,78.99,,SKC,0.04,VWS V14.01,2013-01-18 05:01:00,
2013-01-17 23:02:00,42.0,32.6,29.66,SW,225,8.0,17.0,69,0.43,,SKC,0.04,VWS V14.01,2013-01-18 05:02:00,
2013-01-17 23:03:00,42.0,32.9,29.66,WSW,247,9.0,17.0,70,0.43,,SKC,0.04,VWS V14.01,2013-01-18 05:03:00,
2013-01-17 23:04:00,42.0,34.3,29.66,West,270,10.0,17.0,74,0.43,,SKC,0.04,VWS V14.01,2013-01-18 05:04:00,
2013-01-17 23:05:00,35.0,32.1,30.39,East,90,0.0,15.0,89,0.00,,SKC,0.00,VWS V14.01,2013-01-18 05:05:00,
2013-01-17 23:06:00,42.0,34.3,29.66,SW,225,6.0,17.0,74,0.43,,SKC,0.04,VWS V14.01,2013-01-18 05:06:00,
2013-01-17 23:07:00,42.0,34.3,29.66,NNW,337,7.0,17.0,74,0.43,,SKC,0.04,VWS V14.01,2013-01-18 05:07:00,
2013-01-17 23:10:00,35.0,32.1,30.39,East,90,0.0,15.0,89,0.00,,SKC,0.00,VWS V14.01,2013-01-18 05:10:00,
2013-01-17 23:15:00,35.0,32.1,30.39,East,90,0.0,15.0,89,0.00,,SKC,0.00,VWS V14.01,2013-01-18 05:15:00,
2013-01-17 23:17:00,42.0,36.0,29.66,West,270,7.0,18.0,79,0.43,,SKC,0.04,VWS V14.01,2013-01-18 05:17:00,
2013-01-17 23:18:00,42.0,36.0,29.66,NW,315,5.0,18.0,79,0.43,,SKC,0.04,VWS V14.01,2013-01-18 05:18:00,
2013-01-17 23:19:00,42.0,36.0,29.66,West,270,7.0,18.0,79,0.43,,SKC,0.04,VWS V14.01,2013-01-18 05:19:00,
2013-01-17 23:20:00,35.0,32.4,30.39,East,90,0.0,15.0,90,0.00,,SKC,0.00,VWS V14.01,2013-01-18 05:20:00,
2013-01-17 23:25:00,35.0,32.6,30.39,East,90,0.0,15.0,91,0.00,,SKC,0.00,VWS V14.01,2013-01-18 05:25:00,
2013-01-17 23:27:00,61.0,39.5,28.08,WSW,247,9.0,19.0,45,1.27,,SKC,0.00,VWS V15.00,2013-01-18 05:27:00,
2013-01-17 23:28:00,71.0,71.0,30.13,East,90,3.0,24.0,100,0.00,,SKC,0.00,VWS V14.01,2013-01-18 05:28:00,
2013-01-17 23:29:00,71.0,71.0,30.13,East,90,2.0,24.0,100,0.00,,SKC,0.00,VWS V14.01,2013-01-18 05:29:00,
2013-01-17 23:30:00,35.0,32.6,30.39,East,90,1.0,15.0,91,0.00,,SKC,0.00,VWS V14.01,2013-01-18 05:30:00,
2013-01-17 23:31:00,71.0,71.0,30.14,East,90,4.0,24.0,100,0.00,,SKC,0.00,VWS V14.01,2013-01-18 05:31:00,
2013-01-17 23:32:00,71.0,71.0,30.14,East,90,5.0,24.0,100,0.00,,SKC,0.00,VWS V14.01,2013-01-18 05:32:00,
2013-01-17 23:33:00,60.0,38.0,28.08,South,180,4.0,19.0,44,1.27,,SKC,0.00,VWS V15.00,2013-01-18 05:33:00,
2013-01-17 23:34:00,61.0,39.5,28.08,SW,225,7.0,19.0,45,1.27,,SKC,0.00,VWS V15.00,2013-01-18 05:34:00,
2013-01-17 23:35:00,36.0,33.1,30.39,East,90,2.0,15.0,89,0.00,,SKC,0.00,VWS V14.01,2013-01-18 05:35:00,
2013-01-17 23:36:00,60.0,38.6,28.08,South,180,7.0,19.0,45,1.27,,SKC,0.00,VWS V15.00,2013-01-18 05:36:00,
2013-01-17 23:37:00,60.0,38.0,28.08,SSW,202,11.0,19.0,44,1.27,,SKC,0.00,VWS V15.00,2013-01-18 05:37:00,
2013-01-17 23:38:00,60.0,38.0,28.08,SSE,157,6.0,19.0,44,1.27,,SKC,0.00,VWS V15.00,2013-01-18 05:38:00,
2013-01-17 23:39:00,61.0,39.0,28.08,SSW,202,6.0,19.0,44,1.27,,SKC,0.00,VWS V15.00,2013-01-18 05:39:00,
2013-01-17 23:40:00,37.0,33.8,30.39,East,90,1.0,15.0,88,0.00,,SKC,0.00,VWS V14.01,2013-01-18 05:40:00,
2013-01-17 23:42:00,60.0,38.0,28.08,SE,135,6.0,19.0,44,1.27,,SKC,0.00,VWS V15.00,2013-01-18 05:42:00,
2013-01-17 23:43:00,60.0,38.6,28.08,SW,225,7.0,19.0,45,1.27,,SKC,0.00,VWS V15.00,2013-01-18 05:43:00,
2013-01-17 23:44:00,61.0,39.5,28.08,SW,225,9.0,19.0,45,1.27,,SKC,0.00,VWS V15.00,2013-01-18 05:44:00,
2013-01-17 23:45:00,37.0,33.2,30.39,East,90,1.0,15.0,86,0.00,,SKC,0.00,VWS V14.01,2013-01-18 05:45:00,
2013-01-17 23:46:00,60.0,38.0,28.08,South,180,5.0,19.0,44,1.27,,SKC,0.00,VWS V15.00,2013-01-18 05:46:00,
2013-01-17 23:47:00,60.0,38.0,28.08,SSW,202,7.0,19.0,44,1.27,,SKC,0.00,VWS V15.00,2013-01-18 05:47:00,
2013-01-17 23:48:00,60.0,38.0,28.08,SW,225,7.0,19.0,44,1.27,,SKC,0.00,VWS V15.00,2013-01-18 05:48:00,
2013-01-17 23:50:00,37.0,32.6,30.39,ENE,67,2.0,15.0,84,0.00,,SKC,0.00,VWS V14.01,2013-01-18 05:50:00,
2013-01-17 23:55:00,38.0,33.3,30.39,ENE,67,2.0,15.0,83,0.00,,SKC,0.00,VWS V14.01,2013-01-18 05:55:00,